#timestamp,LO_Frequency,Hit,StdDev 
1628460015.4,286046996.5,Y
1628460035.3,286046998.8,P
1628460055.1,286046998.3,P
1628460056.0,286046998.3,N
1628460075.8,286047001.2,N
1628460095.7,286046998.4,N
1628460115.5,286046998.9,N
1628460135.3,286047000.8,N
1628460155.2,286046999.0,N
1628460175.0,286046998.9,N
1628460175.9,286046998.9,N
1628460195.8,286047000.4,N
1628460215.6,286047000.6,N
1628460235.4,286047002.7,N
1628460255.3,286046999.7,N
1628460275.1,286047002.0,N
1628460295.0,286047002.1,N
1628460295.9,286047002.1,N
1628460315.8,286047002.5,N
1628460335.6,286047004.0,N
1628460355.4,286046999.7,N
1628460375.3,286047002.3,N
1628460395.1,286047001.5,N
1628460415.9,286047002.3,N
1628460435.7,286047000.6,N
1628460455.5,286046999.0,N
1628460475.4,286046998.2,N
1628460495.2,286047000.9,N
1628460515.1,286047000.7,N
1628460516.0,286047000.7,N
1628460535.8,286046999.3,N
1628460555.6,286047001.2,N
1628460575.5,286046998.1,N
1628460595.3,286047001.0,N
1628460615.1,286047000.2,N
1628460635.9,286046999.8,N
1628460655.7,286047000.2,N
1628460675.6,286047001.6,N
1628460695.4,286047002.8,N
1628460715.2,286047002.5,N
1628460735.1,286047002.7,N
1628460736.0,286047002.7,N
1628460755.8,286046999.9,N
1628460775.7,286047000.0,N
1628460795.5,286047002.8,N
1628460815.3,286047002.5,N
1628460835.2,286046999.8,N
1628460855.9,286046999.9,N
1628460875.7,286047000.3,N
1628460895.6,286047000.8,N
1628460915.4,286047000.9,N
1628460935.2,286047000.0,N
1628460955.1,286047000.4,N
1628460956.0,286047000.4,N
1628460975.8,286047000.5,N
1628460995.7,286046999.9,N
1628461015.5,286047001.9,N
1628461035.3,286047003.3,N
1628461055.5,286047005.8,Y
1628461075.3,286047005.4,P
1628461095.2,286047004.6,N
1628461115.0,286047004.5,N
1628461115.9,286047004.5,N
1628461135.8,286047007.6,Y
1628461155.6,286047003.9,P
1628461175.4,286047003.6,P
1628461195.3,286047003.4,P
1628461215.1,286047003.0,Y
1628461235.9,286047000.3,P
1628461255.7,286047000.2,N
1628461275.5,286047001.2,N
1628461295.4,286047001.2,N
1628461315.2,286046998.5,N
1628461335.0,286046999.3,N
1628461335.9,286046999.3,N
1628461355.8,286046999.4,N
1628461375.6,286046996.9,N
1628461395.4,286046996.6,N
1628461415.3,286046997.8,N
1628461435.1,286046997.5,N
1628461455.9,286046997.6,N
1628461475.7,286046995.1,N
1628461495.5,286046996.4,N
1628461515.4,286046993.3,Y
1628461535.2,286046996.8,P
1628461555.0,286046997.1,N
1628461556.0,286046997.1,P
1628461575.8,286046997.9,N
1628461595.8,286046997.1,Y
1628461615.6,286046998.3,P
1628461635.5,286046999.3,N
1628461655.3,286046997.1,P
1628461675.1,286046996.8,Y
1628461695.9,286046998.2,P
1628461715.7,286046999.4,P
1628461735.6,286046996.6,P
1628461755.4,286046997.7,N
1628461775.2,286046994.9,Y
1628461795.1,286046998.5,P
1628461796.0,286046998.5,P
1628461815.8,286046998.6,P
1628461835.7,286046998.3,Y
1628461855.5,286047000.0,P
1628461875.3,286047001.2,N
1628461895.2,286047000.7,N
1628461915.9,286046998.5,N
1628461935.7,286046998.8,N
1628461955.6,286046998.2,N
1628461975.4,286047000.6,N
1628461995.3,286046998.6,N
1628462015.1,286046998.8,N
1628462016.0,286046998.8,N
1628462035.8,286046998.4,N
1628462055.7,286046998.1,N
1628462075.5,286046998.3,N
1628462095.3,286047001.0,N
1628462115.2,286047000.6,N
1628462135.0,286046999.7,N
1628462135.9,286046999.7,N
1628462155.8,286047000.5,N
1628462175.6,286047001.0,N
1628462195.4,286047001.1,N
1628462215.3,286046998.6,N
1628462235.1,286047002.7,N
1628462255.8,286046999.8,N
1628462275.7,286046999.7,N
1628462295.5,286047001.6,N
1628462315.4,286047002.5,N
1628462335.2,286047002.3,N
1628462355.0,286047000.1,N
1628462355.9,286047000.1,N
1628462375.8,286046999.7,N
1628462395.6,286047002.2,N
1628462415.4,286046999.9,N
1628462435.3,286047000.2,N
1628462455.1,286047001.0,N
1628462475.9,286047002.4,N
1628462495.7,286047002.3,N
1628462515.5,286047002.8,N
1628462535.4,286047000.1,N
1628462555.2,286047001.6,N
1628462575.0,286046999.8,N
1628462575.9,286046999.8,N
1628462595.8,286047000.2,N
1628462615.6,286047002.8,N
1628462635.5,286047000.0,N
1628462655.3,286047000.2,N
1628462675.1,286046999.7,N
1628462695.9,286047002.3,N
1628462715.7,286047000.0,N
1628462735.6,286047000.0,N
1628462755.4,286047000.2,N
1628462775.2,286047000.5,N
1628462795.1,286047002.8,N
1628462796.0,286047002.8,N
1628462815.8,286047000.2,N
1628462835.7,286047000.4,N
1628462855.5,286047002.7,N
1628462875.3,286047000.2,N
1628462895.2,286047001.1,N
1628462915.0,286047000.6,N
1628462915.9,286047000.6,N
1628462935.7,286047002.3,N
1628462955.6,286047001.3,N
1628462975.4,286047001.7,N
1628462995.3,286047001.8,N
1628463015.1,286047001.3,N
1628463035.8,286047002.3,N
1628463055.7,286047002.4,N
1628463075.5,286046999.7,N
1628463095.4,286047002.7,N
1628463115.2,286047002.1,N
1628463135.0,286047000.1,N
1628463135.9,286047000.1,N
1628463155.8,286046999.8,N
1628463175.6,286047001.3,N
1628463195.4,286047001.7,N
1628463215.3,286047001.5,N
1628463235.1,286047002.5,N
1628463255.9,286047002.1,N
1628463275.7,286046999.7,N
1628463295.5,286047001.4,N
1628463315.4,286047003.9,Y
1628463335.2,286047004.0,P
1628463355.0,286047002.0,N
1628463355.9,286047002.0,N
1628463375.8,286047004.3,Y
1628463395.6,286047000.8,P
1628463415.5,286047000.3,N
1628463435.3,286046998.5,N
1628463455.1,286047000.6,N
1628463475.9,286046999.9,N
1628463495.7,286047001.2,N
1628463515.6,286046998.4,N
1628463535.4,286046998.8,N
1628463555.2,286046998.9,N
1628463575.1,286046997.1,N
1628463576.0,286046997.1,N
1628463595.8,286046996.6,N
